TimeMDT,TemperatureF,Dew PointF,Humidity,Sea Level PressureIn,VisibilityMPH,Wind Direction,Wind SpeedMPH,Gust SpeedMPH,PrecipitationIn,Events,Conditions,WindDirDegrees,DateUTC
12:14 AM,33.8,32.0,93,29.94,2.5,North,16.1,23.0,0.02,Snow,Light Snow,360,2012-10-17 06:14:00
12:25 AM,33.8,32.0,93,29.94,3.0,NNW,12.7,21.9,0.03,Snow,Light Snow,340,2012-10-17 06:25:00
12:53 AM,35.1,32.0,89,29.59,7.0,NW,23.0,31.1,0.06,Snow,Light Snow,310,2012-10-17 06:53:00
1:04 AM,37.4,28.4,70,29.96,9.0,NW,20.7,42.6,0.00,,Overcast,310,2012-10-17 07:04:00
1:53 AM,36.0,26.1,67,29.57,10.0,WNW,27.6,36.8,0.00,,Mostly Cloudy,300,2012-10-17 07:53:00
2:53 AM,35.1,21.9,59,29.55,10.0,WNW,27.6,35.7,N/A,,Partly Cloudy,300,2012-10-17 08:53:00
3:53 AM,33.1,18.0,54,29.57,10.0,NW,20.7,28.8,N/A,,Clear,310,2012-10-17 09:53:00
4:53 AM,32.0,12.0,44,29.59,10.0,NW,15.0,31.1,N/A,,Clear,310,2012-10-17 10:53:00
5:53 AM,30.0,9.0,41,29.63,10.0,WNW,12.7,27.6,N/A,,Clear,300,2012-10-17 11:53:00
6:53 AM,28.0,7.0,41,29.66,10.0,WNW,12.7,24.2,N/A,,Clear,290,2012-10-17 12:53:00
7:53 AM,26.1,10.9,53,29.72,10.0,WNW,19.6,26.5,N/A,,Clear,300,2012-10-17 13:53:00
8:53 AM,26.1,10.0,51,29.74,10.0,West,24.2,33.4,N/A,,Partly Cloudy,280,2012-10-17 14:53:00
11:53 AM,32.0,6.1,34,29.82,10.0,WNW,20.7,27.6,N/A,,Clear,300,2012-10-17 17:53:00
2:53 PM,37.0,-2.0,19,29.77,10.0,WNW,26.5,35.7,N/A,,Clear,300,2012-10-17 20:53:00
3:53 PM,37.9,-2.9,18,29.80,10.0,WNW,23.0,39.1,N/A,,Clear,300,2012-10-17 21:53:00
4:53 PM,37.9,-2.0,18,29.82,10.0,WNW,25.3,35.7,N/A,,Clear,300,2012-10-17 22:53:00
5:53 PM,36.0,-4.0,18,29.88,10.0,WNW,19.6,40.3,N/A,,Clear,300,2012-10-17 23:53:00
6:53 PM,34.0,-0.0,24,29.92,10.0,NW,17.3,24.2,N/A,,Clear,310,2012-10-18 00:53:00
7:53 PM,33.1,3.0,28,29.95,10.0,North,11.5,17.3,N/A,,Clear,360,2012-10-18 01:53:00
8:53 PM,32.0,3.9,31,29.97,10.0,NNW,10.4,-,N/A,,Clear,330,2012-10-18 02:53:00
9:53 PM,32.0,3.9,31,29.99,10.0,North,10.4,20.7,N/A,,Clear,350,2012-10-18 03:53:00
10:53 PM,32.0,3.9,31,29.98,10.0,North,17.3,27.6,N/A,,Clear,350,2012-10-18 04:53:00
11:53 PM,30.9,3.0,31,29.96,10.0,NNW,13.8,20.7,N/A,,Clear,330,2012-10-18 05:53:00